FW2442 Weather Reports


time (UTC)temp
F
wind
direction
speed
knots
gust
knots
rain 1hr
in
rain 24hr
in
rain mn
in
humidity
%
barometer
mb
20260503225524 52 199 0.0 2.6 0.00 0.00 0.00 52 1017.6
20260503224524 52 0.0 0.0 0.00 0.00 0.00 52 1017.7
20260503223527 52 0.0 0.0 0.00 0.00 0.00 52 1017.8
20260503222526 52 0.0 0.0 0.00 0.00 0.00 53 1017.8
20260503221606 52 200 0.0 1.7 0.00 0.00 0.00 52 1017.8
20260503220522 52 0.0 0.0 0.00 0.00 0.00 52 1017.9
20260503215544 52 0.0 0.0 0.00 0.00 0.00 53 1017.9
20260503214522 53 0.0 0.0 0.00 0.00 0.00 51 1017.9
20260503213522 54 0.0 0.0 0.00 0.00 0.00 50 1018.1
20260503212524 53 0.0 0.0 0.00 0.00 0.00 51 1018.1
20260503211528 52 0.0 0.0 0.00 0.00 0.00 52 1018.1
20260503210604 52 0.0 0.0 0.00 0.00 0.00 54 1018.1
20260503205524 52 0.0 0.0 0.00 0.00 0.00 55 1018.3
20260503204544 52 0.0 0.0 0.00 0.00 0.00 55 1018.3
20260503203523 53 0.0 0.0 0.00 0.00 0.00 52 1018.4
20260503202544 53 0.0 0.0 0.00 0.00 0.00 52 1018.4
20260503201522 53 0.0 0.0 0.00 0.00 0.00 52 1018.4
20260503200525 53 0.0 0.0 0.00 0.00 0.00 52 1018.5
20260503195524 53 0.0 0.0 0.00 0.00 0.00 53 1018.5
20260503194542 53 0.0 0.0 0.00 0.00 0.00 52 1018.6
20260503193524 53 0.0 0.0 0.00 0.00 0.00 52 1018.7
20260503192524 54 0.0 0.0 0.00 0.00 0.00 52 1018.8
20260503191544 54 0.0 0.0 0.00 0.00 0.00 50 1018.7
20260503190523 55 0.0 0.0 0.00 0.00 0.00 50 1018.7
20260503185523 54 0.0 0.0 0.00 0.00 0.00 51 1018.7
20260503184524 55 0.0 0.0 0.00 0.00 0.00 51 1018.8
20260503183523 55 0.0 0.0 0.00 0.00 0.00 50 1018.7
20260503182603 55 291 0.0 0.9 0.00 0.00 0.00 50 1018.6
20260503181544 55 0.0 0.0 0.00 0.00 0.00 50 1018.6
20260503180544 55 0.0 0.0 0.00 0.00 0.00 50 1018.6
20260503175543 56 0.0 0.0 0.00 0.00 0.00 50 1018.6
20260503174523 56 0.0 0.0 0.00 0.00 0.00 49 1018.6
20260503173544 57 0.0 0.0 0.00 0.00 0.00 48 1018.5
20260503172524 58 0.0 0.0 0.00 0.00 0.00 47 1018.6
20260503171523 58 0.0 0.0 0.00 0.00 0.00 46 1018.6
20260503170522 59 0.0 0.0 0.00 0.00 0.00 46 1018.8
20260503150524 60 289 1.7 1.7 0.00 0.00 0.00 40 1019.4
20260503130544 62 254 0.9 1.7 0.00 0.00 0.00 35 1020.7
20260503110523 62 313 2.6 5.2 0.00 0.00 0.00 35 1021.9
20260503081524 58 318 1.7 6.1 0.00 0.00 0.00 35 1023.7
20260503080524 58 305 0.9 5.2 0.00 0.00 0.00 37 1023.9
20260503072524 57 185 0.9 2.6 0.00 0.00 0.00 46 1024.1
20260503071545 56 225 1.7 3.5 0.00 0.00 0.00 48 1024.2
20260503070523 56 184 0.9 2.6 0.00 0.00 0.00 50 1024.1
20260503054524 50 205 0.0 1.7 0.00 0.00 0.00 60 1024.3
20260503053544 49 192 0.0 1.7 0.00 0.00 0.00 60 1024.2
20260503052524 48 189 0.0 0.9 0.00 0.00 0.00 60 1024.3
20260503051524 48 0.0 0.9 0.00 0.00 0.00 59 1024.3
20260503050524 48 0.0 0.0 0.00 0.00 0.00 60 1024.2
20260503045525 47 0.0 0.0 0.00 0.00 0.00 62 1024.2
20260503044544 46 0.0 0.0 0.00 0.00 0.00 62 1024.2
20260503043544 45 0.0 0.0 0.00 0.00 0.00 65 1024.1
20260503042547 44 0.0 0.0 0.00 0.00 0.00 63 1024.2
20260503041545 44 0.0 0.0 0.00 0.00 0.00 64 1024.1
20260503040605 43 0.0 0.0 0.00 0.00 0.00 64 1024.0
20260503035523 42 0.0 0.0 0.00 0.00 0.00 66 1024.0
20260503034525 41 0.0 0.0 0.00 0.00 0.00 68 1023.9
20260503033524 39 0.0 0.0 0.00 0.00 0.00 70 1024.0
20260503032524 38 0.0 0.0 0.00 0.00 0.00 72 1023.9
20260503031524 37 0.0 0.0 0.00 0.00 0.00 72 1023.9
20260503030523 37 0.0 0.0 0.00 0.00 0.00 71 1023.8
20260503025524 38 0.0 0.0 0.00 0.00 0.00 70 1023.7
20260503024525 39 0.0 0.0 0.00 0.00 0.00 68 1023.7
20260503023526 38 0.0 0.0 0.00 0.00 0.00 67 1023.6
20260503022524 39 0.0 0.0 0.00 0.00 0.00 67 1023.6
20260503021526 39 0.0 0.0 0.00 0.00 0.00 66 1023.6
20260503020526 39 0.0 0.0 0.00 0.00 0.00 66 1023.6
20260503015524 40 0.0 0.0 0.00 0.00 0.00 65 1023.6
20260503014524 41 0.0 0.0 0.00 0.00 0.00 62 1023.6
20260503013544 42 0.0 0.0 0.00 0.00 0.00 60 1023.6
20260503012524 42 0.0 0.0 0.00 0.00 0.00 59 1023.6
20260503011524 42 0.0 0.0 0.00 0.00 0.00 59 1023.7
20260503010524 43 0.0 0.0 0.00 0.00 0.00 59 1023.6
20260503005524 42 0.0 0.0 0.00 0.00 0.00 60 1023.7
20260503004524 42 0.0 0.0 0.00 0.00 0.00 61 1023.6
20260503003525 42 0.0 0.0 0.00 0.00 0.00 60 1023.6
20260503002524 43 0.0 0.0 0.00 0.00 0.00 59 1023.6
20260503001524 43 0.0 0.0 0.00 0.00 0.00 58 1023.7
20260503000525 43 0.0 0.0 0.00 0.00 0.00 59 1023.7
20260502235524 43 0.0 0.0 0.00 0.00 0.00 59 1023.7
20260502234524 42 0.0 0.0 0.00 0.00 0.00 60 1023.8
20260502233524 42 0.0 0.0 0.00 0.00 0.00 60 1023.8
20260502232525 42 0.0 0.0 0.00 0.00 0.00 61 1023.8
20260502231525 43 0.0 0.0 0.00 0.00 0.00 60 1023.9
20260502230524 43 0.0 0.0 0.00 0.00 0.00 60 1024.0